When you browse on this site, cookies collect data to enhance your experience and personalize the content and advertising you see.
Visit our Privacy Policy to learn more. By continuing to use the site, you agree to this use of cookies and data.
  • In Hungary
  • List of Countries
  • For 7 days
  • Water Temperature
  • Weather Map
  • News
  • Weather Widgets
  • user-avatar
    Login

    Hourly Weather Arininskoe

    Today, 21 January, Tuesday

    Time Temperature Precipitation Wind Pressure Humidity
    00:00 -1°C° 0.2 mm 5 mps 749 mmHg 89%
    01:00 -2°C° 0.2 mm 5 mps 748 mmHg 92%
    02:00 -2°C° 0 mm 6 mps 747 mmHg 93%
    03:00 -2°C° 0.2 mm 6 mps 746 mmHg 94%
    04:00 -2°C° 0.2 mm 6 mps 745 mmHg 95%
    05:00 -1°C° 0.2 mm 6 mps 744 mmHg 95%
    06:00 -1°C° 0.4 mm 6 mps 743 mmHg 93%
    07:00 +1°C° 0.4 mm 6 mps 742 mmHg 91%
    08:00 +1°C° 0 mm 6 mps 741 mmHg 86%
    09:00 +1°C° 0.3 mm 6 mps 741 mmHg 88%
    10:00 +1°C° 0.3 mm 6 mps 740 mmHg 90%
    11:00 +1°C° 0.3 mm 6 mps 740 mmHg 91%
    12:00 +1°C° 0.1 mm 5 mps 739 mmHg 91%
    13:00 +2°C° 0.1 mm 5 mps 739 mmHg 91%
    14:00 +2°C° 0.1 mm 5 mps 738 mmHg 90%
    15:00 +2°C° 0.3 mm 5 mps 737 mmHg 91%
    16:00 +2°C° 0.3 mm 5 mps 737 mmHg 93%
    17:00 +2°C° 0.3 mm 5 mps 736 mmHg 94%
    18:00 +2°C° 0.3 mm 6 mps 736 mmHg 91%
    19:00 +1°C° 0.3 mm 6 mps 736 mmHg 88%
    20:00 0°C° 0.3 mm 7 mps 736 mmHg 86%
    21:00 -1°C° 0 mm 7 mps 736 mmHg 83%
    22:00 -2°C° 0 mm 7 mps 736 mmHg 80%
    23:00 -2°C° 0 mm 7 mps 737 mmHg 77%

    Tomorrow, 22 January, Wednesday

    Time Temperature Precipitation Wind Pressure Humidity
    00:00 -3°C° 0 mm 6 mps 737 mmHg 78%
    01:00 -2°C° 0 mm 5 mps 737 mmHg 78%
    02:00 -2°C° 0 mm 5 mps 737 mmHg 79%
    03:00 -2°C° 0 mm 5 mps 736 mmHg 80%
    04:00 -2°C° 0 mm 5 mps 735 mmHg 81%
    05:00 -4°C° 0 mm 5 mps 734 mmHg 81%
    06:00 -4°C° 0.1 mm 5 mps 734 mmHg 82%
    07:00 -4°C° 0.1 mm 5 mps 734 mmHg 83%
    08:00 -3°C° 0.1 mm 4 mps 733 mmHg 84%
    09:00 -4°C° 0.2 mm 5 mps 733 mmHg 81%
    10:00 -2°C° 0.2 mm 5 mps 733 mmHg 78%
    11:00 -2°C° 0.2 mm 5 mps 732 mmHg 75%
    12:00 -2°C° 0.1 mm 5 mps 732 mmHg 73%
    13:00 -2°C° 0.1 mm 5 mps 733 mmHg 72%
    14:00 -2°C° 0.1 mm 5 mps 733 mmHg 71%
    15:00 -4°C° 0 mm 5 mps 733 mmHg 73%
    16:00 -5°C° 0 mm 5 mps 733 mmHg 76%
    17:00 -5°C° 0 mm 5 mps 734 mmHg 78%
    18:00 -5°C° 0 mm 5 mps 734 mmHg 78%
    19:00 -5°C° 0 mm 5 mps 735 mmHg 77%
    20:00 -5°C° 0 mm 6 mps 735 mmHg 77%
    21:00 -5°C° 0.1 mm 6 mps 735 mmHg 78%
    22:00 -6°C° 0.1 mm 6 mps 736 mmHg 79%
    23:00 -6°C° 0.1 mm 6 mps 736 mmHg 80%

    Day after tomorrow, 23 January, Thursday

    Time Temperature Precipitation Wind Pressure Humidity
    00:00 -6°C° 0.1 mm 6 mps 737 mmHg 79%
    01:00 -8°C° 0.1 mm 6 mps 738 mmHg 77%
    02:00 -8°C° 0.1 mm 6 mps 738 mmHg 76%
    03:00 -9°C° 0 mm 6 mps 739 mmHg 74%
    04:00 -9°C° 0 mm 6 mps 739 mmHg 72%
    05:00 -10°C° 0 mm 6 mps 740 mmHg 70%
    06:00 -10°C° 0 mm 6 mps 740 mmHg 68%
    07:00 -10°C° 0 mm 6 mps 741 mmHg 65%
    08:00 -10°C° 0 mm 6 mps 742 mmHg 63%
    09:00 -10°C° 0.1 mm 5 mps 742 mmHg 68%
    10:00 -8°C° 0.1 mm 5 mps 742 mmHg 73%
    11:00 -8°C° 0.1 mm 5 mps 742 mmHg 78%
    12:00 -7°C° 0.2 mm 5 mps 742 mmHg 77%
    13:00 -7°C° 0.2 mm 5 mps 743 mmHg 76%
    14:00 -7°C° 0.2 mm 5 mps 743 mmHg 76%
    15:00 -7°C° 0.1 mm 5 mps 743 mmHg 72%
    16:00 -8°C° 0.1 mm 5 mps 744 mmHg 69%
    17:00 -8°C° 0.1 mm 5 mps 744 mmHg 66%
    18:00 -9°C° 0 mm 4 mps 745 mmHg 68%
    19:00 -9°C° 0 mm 4 mps 745 mmHg 69%
    20:00 -9°C° 0 mm 3 mps 746 mmHg 71%
    21:00 -9°C° 0 mm 3 mps 746 mmHg 72%
    22:00 -9°C° 0 mm 3 mps 746 mmHg 74%
    23:00 -9°C° 0 mm 3 mps 746 mmHg 75%

    24 January, Friday

    Time Temperature Precipitation Wind Pressure Humidity
    00:00 -9°C° 0 mm 3 mps 746 mmHg 74%
    01:00 -7°C° 0 mm 2 mps 746 mmHg 73%
    02:00 -7°C° 0 mm 2 mps 746 mmHg 72%
    03:00 -6°C° 0 mm 2 mps 745 mmHg 77%
    04:00 -7°C° 0 mm 3 mps 745 mmHg 82%
    05:00 -6°C° 0 mm 3 mps 744 mmHg 87%
    06:00 -7°C° 0.4 mm 4 mps 744 mmHg 89%
    07:00 -5°C° 0.4 mm 4 mps 743 mmHg 92%
    08:00 -6°C° 0.4 mm 5 mps 743 mmHg 94%
    09:00 -5°C° 0.2 mm 5 mps 742 mmHg 92%
    10:00 -3°C° 0.2 mm 4 mps 742 mmHg 90%
    11:00 -3°C° 0.2 mm 4 mps 741 mmHg 88%
    12:00 -2°C° 0 mm 5 mps 741 mmHg 88%
    13:00 -2°C° 0 mm 5 mps 741 mmHg 89%
    14:00 -1°C° 0 mm 5 mps 740 mmHg 90%
    15:00 -1°C° 0 mm 5 mps 740 mmHg 89%
    16:00 0°C° 0 mm 5 mps 740 mmHg 89%
    17:00 0°C° 0 mm 4 mps 740 mmHg 88%
    18:00 0°C° 0 mm 4 mps 741 mmHg 88%
    19:00 0°C° 0 mm 4 mps 741 mmHg 88%
    20:00 -1°C° 0 mm 4 mps 741 mmHg 87%
    21:00 -1°C° 0 mm 4 mps 741 mmHg 89%
    22:00 -1°C° 0 mm 4 mps 741 mmHg 91%
    23:00 -1°C° 0 mm 4 mps 741 mmHg 93%

    25 January, Saturday

    Time Temperature Precipitation Wind Pressure Humidity
    00:00 0°C° 0 mm 3 mps 741 mmHg 94%
    01:00 0°C° 0 mm 3 mps 741 mmHg 95%
    02:00 -1°C° 0 mm 3 mps 742 mmHg 95%
    03:00 -1°C° 0 mm 2 mps 742 mmHg 95%
    04:00 -1°C° 0 mm 2 mps 742 mmHg 95%
    05:00 -1°C° 0 mm 2 mps 742 mmHg 95%
    06:00 +1°C° 0 mm 2 mps 742 mmHg 96%
    07:00 +1°C° 0 mm 2 mps 742 mmHg 97%
    08:00 +1°C° 0 mm 2 mps 742 mmHg 98%
    09:00 +1°C° 0.1 mm 2 mps 742 mmHg 98%
    10:00 +1°C° 0.1 mm 2 mps 742 mmHg 98%
    11:00 +2°C° 0.1 mm 2 mps 743 mmHg 98%
    12:00 +2°C° 0.1 mm 2 mps 742 mmHg 97%
    13:00 +2°C° 0.1 mm 2 mps 742 mmHg 97%
    14:00 +1°C° 0.1 mm 3 mps 742 mmHg 97%
    15:00 +1°C° 0.1 mm 3 mps 742 mmHg 96%
    16:00 +1°C° 0.1 mm 3 mps 742 mmHg 95%
    17:00 0°C° 0.1 mm 3 mps 742 mmHg 95%
    18:00 0°C° 0 mm 3 mps 742 mmHg 94%
    19:00 0°C° 0 mm 3 mps 742 mmHg 93%
    20:00 0°C° 0 mm 3 mps 743 mmHg 92%
    21:00 -1°C° 0 mm 3 mps 743 mmHg 91%
    22:00 -1°C° 0 mm 3 mps 743 mmHg 91%
    23:00 -1°C° 0 mm 2 mps 743 mmHg 90%

    26 January, Sunday

    Time Temperature Precipitation Wind Pressure Humidity
    00:00 -2°C° 0 mm 2 mps 743 mmHg 91%
    01:00 -2°C° 0 mm 3 mps 743 mmHg 92%
    02:00 -2°C° 0 mm 3 mps 744 mmHg 93%
    03:00 -2°C° 0 mm 3 mps 744 mmHg 93%
    04:00 -4°C° 0 mm 3 mps 744 mmHg 93%
    05:00 -4°C° 0 mm 3 mps 744 mmHg 93%
    06:00 -4°C° 0 mm 3 mps 744 mmHg 93%
    07:00 -3°C° 0 mm 2 mps 745 mmHg 93%
    08:00 -3°C° 0 mm 2 mps 745 mmHg 93%
    09:00 -2°C° 0 mm 2 mps 745 mmHg 90%
    10:00 -2°C° 0 mm 2 mps 745 mmHg 87%
    11:00 -1°C° 0 mm 3 mps 745 mmHg 85%
    12:00 -1°C° 0 mm 3 mps 745 mmHg 86%
    13:00 0°C° 0 mm 3 mps 745 mmHg 87%
    14:00 +1°C° 0 mm 2 mps 745 mmHg 89%
    15:00 +1°C° 0 mm 2 mps 745 mmHg 89%
    16:00 +1°C° 0 mm 2 mps 745 mmHg 89%
    17:00 +1°C° 0 mm 2 mps 745 mmHg 90%
    18:00 +1°C° 0 mm 2 mps 745 mmHg 93%
    19:00 +1°C° 0 mm 2 mps 745 mmHg 95%
    20:00 -1°C° 0 mm 2 mps 745 mmHg 98%
    21:00 +1°C° 0.1 mm 2 mps 745 mmHg 98%
    22:00 +1°C° 0.1 mm 2 mps 745 mmHg 97%
    23:00 +1°C° 0.1 mm 2 mps 745 mmHg 97%
    Show more